Skip Page Navigation
NASA JPL Caltech
NASA Logo - Jet Propulsion Laboratory + View the NASA Portal
+ Center for Near-Earth Object Studies
JPL Home Earth Solar System Stars & Galaxies Technology
JPL Solar System Dynamics
BODIES ORBITS EPHEMERIDES TOOLS PHYSICAL DATA DISCOVERY FAQ SITE MAP
JPL Small-Body Database Browser
Search: [ help ]  
175036 (2004 FO56)
Classification: Main-belt Asteroid          SPK-ID: 2175036
Ephemeris | Orbit Diagram | Orbital Elements | Mission Design | Physical Parameters | Discovery Circumstances | Close-Approach Data ]

[ show orbit diagram ]
Orbital Elements at Epoch 2459200.5 (2020-Dec-17.0) TDB
Reference: JPL 19 (heliocentric ecliptic J2000)
 Element Value Uncertainty (1-sigma)   Units 
e .07481629457006606 4.2715e-08  
a 3.004811242560427 2.5243e-08 au
q 2.78000239950958 1.2024e-07 au
i 2.342852425862606 4.1902e-06 deg
node 140.5718729732615 0.0001347 deg
peri 22.4735903631067 0.00014022 deg
M 105.5709772516279 3.7145e-05 deg
tp 2458642.587282556872
(2019-Jun-08.08728256)
0.00019724 TDB
period 1902.498049258412
5.21
2.3974e-05
6.564e-08
d
yr
n .1892248983594632 2.3844e-09 deg/d
Q 3.229620085611274 2.7131e-08 au
  Orbit Determination Parameters
   # obs. used (total)      415  
   data-arc span      10481 days (28.70 yr)  
   first obs. used      1991-11-07  
   last obs. used      2020-07-18  
   planetary ephem.      DE441  
   SB-pert. ephem.      SB441-N16  
   condition code      0  
   norm. resid. RMS      .49735  
   source      ORB  
   producer      Otto Matic  
   solution date      2021-Apr-13 21:03:46  

Additional Information
 Earth MOID = 1.7877 au 
 Jupiter MOID = 1.74037 au 
 T_jup = 3.246 
[ show covariance matrix ]

Ephemeris | Orbit Diagram | Orbital Elements | Mission Design | Physical Parameters | Discovery Circumstances | Close-Approach Data ]

Physical Parameter Table
Parameter Symbol Value Units Sigma Reference Notes
absolute magnitude H 15.99   n/a E2021B55  

175036 (2004 FO56)          Discovered 2004-Mar-16 by Spacewatch at Kitt Peak
Reference: 20080122/Numbers.arcLast Updated: 2008-01-28

[ show close-approach data ]
Alternate Designations
 2004 FO56 = 2006 UF148 
Ephemeris | Orbit Diagram | Orbital Elements | Mission Design | Physical Parameters | Discovery Circumstances | Close-Approach Data ]
ABOUT SSD CREDITS/AWARDS PRIVACY/COPYRIGHT GLOSSARY LINKS
FirstGov 2021-Apr-15 18:24 UT
(server date/time)  
NASA Home Page
Site Manager:   Ryan S. Park
Webmaster  Alan B. Chamberlin